map of BRC home
Great Circle Mapper logo
BRC - Airport
Location
City:  San Carlos de Bariloche, Río Negro, Argentina
ICAO:SAZS
IATA:BRC

Details
Type:Airport (Aerodrome, Airfield)
Use:Public/Civil
Latitude:41°09'04"S (-41.151171)
Longitude:71°09'27"W (-71.157541)
Datum:WGS 1984
Elevation:2776 ft (846 m)
Variation:6.80°E (WMM2015 magnetic declination)
-0.12° annual change
Runways:1
Longest:7703 × 157 ft (2348 × 48 m), paved

Time
Time Zone:UTC-3
Local Time:

Weather
METAR:SAZS 242000Z 09004KT CAVOK 20/M08 Q1019
TAF:SAZS 241700Z 2418/2518 09010KT CAVOK TX16/2518Z TN01/2510Z
BECMG 2421/2422 05010KT 9999 BKN035 BKN100 PROB30 2508/2511 36005KT 5000 BR BKN025
BECMG 2513/2515 36005KT 9999 BKN030

Related Locations
Nearby:
Farthest:RLK: 12381 mi / 19925 km
Bayannur [Bayannur Tianjitai Airport], 15, CN

Find:

   beyond  
but within

Other Information
Maps:
NOTAMs:
Links:
Sources:

  
flag of Argentina   

Sectional Chart

Flight Planning
at skyvector.com

Satellite Image

Google Maps Satellite view

 

Copyright © 2004-2016 Karl L. Swartz. All rights reserved.
The Great Circle Mapper name and logo are trademarks of the Great Circle Mapper.
All other trademarks mentioned herein belong to their respective owners.
Please see credits for attibutions and further copyright information.

  Follow gcmap on Facebook Follow gcmap on Twitter Follow gcmap on Google+ GCmap on LinkedIn

hCard Microformat

Geo Microformat